This demonstration page uses our WeatherBlox Daily Observations layout. Learn more.

Left ArrowRight Arrow

41.12389, -100.76542

Hourly Observations for March 13, 2021

Temp ( °F °C ) Dew Point ( °F °C ) Humidity (%) Winds ( mph kmh ) Pressure ( in mb ) Visibility ( mi km ) Precip ( " mm )
12:53 am 00:53 Cloudy 40 4.4 32 0 73 73 E 10 17 30.32 1027 10 16 0.00 0.00
1:53 am 01:53 Cloudy 39 3.9 32 0 76 76 E 14 22 30.31 1026 10 16 0.00 0.00
2:10 am 02:10 Cloudy 38 3.3 34 1.1 86 86 E 13 20 30.37 1028 9 14 0.00 0.00
2:53 am 02:53 Cloudy 38 3.3 34 1.1 86 86 E 10 17 30.30 1026 10 16 0.00 0.00
3:53 am 03:53 Cloudy 38 3.3 35 1.7 89 89 E 6 9 30.29 1026 10 16 0.00 0.00
4:53 am 04:53 Cloudy 39 3.9 32 0 76 76 E 9 15 30.26 1025 10 16 0.00 0.00
5:53 am 05:53 Cloudy with Light Rain 38 3.3 32 0 79 79 E 14 22 30.27 1025 10 16 0.00 0.00
6:22 am 06:22 Cloudy 38 3.3 32 0 79 79 E 9 15 30.31 1026 10 16 0.00 0.00
6:30 am 06:30 Cloudy 38 3.3 32 0 79 79 E 8 13 30.31 1026 10 16 0.00 0.00
6:53 am 06:53 Cloudy 38 3.3 32 0 79 79 E 10 17 30.27 1025 10 16 0.00 0.00
7:53 am 07:53 Cloudy 37 2.8 32 0 82 82 E 9 15 30.27 1025 10 16 0.00 0.00
8:01 am 08:01 Cloudy 37 2.8 32 0 82 82 E 10 17 30.32 1027 10 16 0.00 0.00
8:53 am 08:53 Cloudy with Rain 37 2.8 33 0.6 86 86 E 6 9 30.30 1026 3 5 0.04 1.02
9:01 am 09:01 Cloudy with Rain 37 2.8 34 1.1 89 89 ENE 8 13 30.33 1027 3 5 0.04 1.02
9:50 am 09:50 Cloudy with Light Rain 37 3 36 2 93 93 E 13 20 30.31 1026 10 16 0.13 3.30
9:53 am 09:53 Cloudy with Light Rain 38 3.3 35 1.7 89 89 E 13 20 30.26 1025 10 16 0.13 3.30
10:53 am 10:53 Cloudy with Rain 40 4.4 36 2.2 86 86 E 15 24 30.24 1024 3 4 0.03 0.76
11:06 am 11:06 Cloudy with Light Rain 40 4.4 36 2.2 86 86 E 14 22 30.24 1024 6 10 0.02 0.51
11:53 am 11:53 Cloudy with Light Rain 40 4.4 36 2.2 86 86 E 16 26 30.22 1023 8 13 0.03 0.76
12:53 pm 12:53 Cloudy with Rain 39 3.9 36 2.2 89 89 ESE 13 20 30.21 1023 5 8 0.03 0.76
1:53 pm 13:53 Cloudy with Rain 40 4.4 37 2.8 89 89 E 7 11 30.20 1023 5 8 0.13 3.30
2:53 pm 14:53 Cloudy with Rain 40 4.4 38 3.3 93 93 E 6 9 30.20 1023 5 8 0.24 6.10
3:06 pm 15:06 Cloudy with Rain 40 4.4 37 2.8 89 89 ENE 9 15 30.20 1023 5 8 0.05 1.27
3:53 pm 15:53 Cloudy with Rain 41 5 38 3.3 89 89 ENE 15 24 30.15 1021 6 10 0.21 5.33
4:48 pm 16:48 Cloudy with Rain 41 5 37 3 87 87 NE 17 28 30.13 1020 7 11 0.17 4.32
4:53 pm 16:53 Cloudy with Rain 41 5 37 2.8 86 86 NE 16 26 30.11 1020 7 11 0.19 4.83
5:24 pm 17:24 Cloudy with Rain 41 5 37 2.8 86 86 ENE 15 24 30.12 1020 7 11 0.11 2.79
5:53 pm 17:53 Cloudy with Light Rain 41 5 37 2.8 86 86 E 16 26 30.10 1019 8 13 0.27 6.86
6:53 pm 18:53 Cloudy with Light Rain 41 5 38 3.3 89 89 E 15 24 30.07 1018 10 16 0.12 3.05
7:53 pm 19:53 Cloudy with Rain 41 5 37 2.8 86 86 E 13 20 30.11 1020 8 13 0.19 4.83
8:53 pm 20:53 Cloudy with Light Rain 41 5 37 2.8 86 86 E 15 24 30.10 1019 10 16 0.03 0.76
9:53 pm 21:53 Cloudy 41 5 37 2.8 86 86 ENE 24 39 30.01 1016 10 16 0.01 0.25
10:53 pm 22:53 Cloudy 42 5.6 39 3.9 89 89 E 21 33 30.04 1017 10 16 0.00 0.00
11:53 pm 23:53 Cloudy with Light Rain 42 5.6 38 3.3 85 85 E 28 44 30.01 1016 10 16 0.00 0.00

Powered by AerisWeather